Location: Minneapolis
(45.0000°N, 93.0000°W)
Time: 07:08:32
(UTC-05:00)

Envisat - Pass Details

Date: 13 March 2018
Orbit: 764 x 766 km, 98.2° (Epoch: 25 June)

Event Time Altitude Azimuth Distance (km) Brightness Sun altitude
Rises 19:52:05 0° 144° (SE) 3,216 5.8 -7.3°
Reaches altitude 10° 19:54:29 10° 137° (SE) 2,295 5.0 -7.7°
Maximum altitude 19:59:10 40° 68° (ENE) 1,115 3.5 -8.5°
Drops below altitude 10° 20:03:54 10° 0° (N) 2,310 5.6 -9.4°
Sets 20:06:19 0° 354° (N) 3,240 6.4 -9.8°
